Location: Pescara
(42.4670°N, 14.2170°E)
Time: 03:39:21
(UTC+02:00)

ISS - Pass Details

Date: 13 May 2021
Orbit: 417 x 422 km, 51.6° (Epoch: 14 June)

Event Time Altitude Azimuth Distance (km) Brightness Sun altitude
Exits shadow 02:04:28 13° 328° (NNW) 1,320 -0.8 -27.3°
Maximum altitude 02:06:00 17° 360° (N) 1,153 -0.8 -27.2°
Drops below altitude 10° 02:08:18 10° 43° (NE) 1,508 -0.1 -27.1°
Sets 02:10:57 0° 65° (ENE) 2,374 0.7 -27.0°
